Погода в Рио Гранде

Пуэрто-Рико     18°22′40″N   65°47′24″W
темп.,
°C
ветер,
м/с
пор.,
м/с
влажн.,
%
обл.,
%
осадки,
мм/ч
давл.,
гПа
погр.,
м
9 августа, вт
вт923:00+28в811776 0.0 10161173
02:00+28в910759 0.1 10151090
05:00+28в797399 0.2 10151155
08:00+29в687097 0.3 1016933
11:00+28всв787547 0.1 1017718
14:00+28всв887797 0.1 1016898
17:00+28всв8878100 0.3 1015885
20:00+28всв897743 1.1 1017930
10 августа, ср
ср1023:00+28в8977100 0.6 1017930
02:00+27в7879100 2.5 1015792
05:00+28вюв7874100 0.9 10161065
08:00+28вюв7771100 1.1 10171159
11:00+28в777199 0.0 10171087
14:00+28в777462 0.1 1017917
17:00+28в7774100 0.1 1015765
20:00+28в7875100 0.1 1017784
11 августа, чт
чт1123:00+28в8975100 0.2 1017805
02:00+28в787399 0.3 10151046
05:00+28в7874100 0.1 10151008
08:00+28в7875100 0.5 1016971
11:00+28вюв787584 0.8 1016949
14:00+28вюв787469 1.6 1015993
17:00+28вюв6774100 0.2 1015959
20:00+28в787679 0.4 1016946
12 августа, пт
пт1223:00+28в7876100 1.0 1016879
02:00+28вюв7875100 2.0 1015951
05:00+28в777587 0.1 1015922
08:00+28вюв787598 0.2 1016986
11:00+28в777153 0.1 10171124
14:00+28в667097 0.2 10161029
17:00+28в66717 0.0 1014990
20:00+28в67724 0.0 10151019
13 августа, сб
сб1323:00+27в77735 0.0 10161059
02:00+27в667298 0.1 10151062
05:00+27в5775100 0.1 1015915
08:00+27в887861 0.7 1016825
11:00+28в677799 0.7 1016878
14:00+28в67725 0.8 1015974
17:00+28в677488 0.0 1014963
20:00+28в677793 0.2 1015862